Time,TemperatureF,DewpointF,PressureIn,WindDirection,WindDirectionDegrees,WindSpeedMPH,WindSpeedGustMPH,Humidity,HourlyPrecipIn,Conditions,Clouds,dailyrainin,SolarRadiationWatts/m^2,SoftwareType,DateUTC
2013-02-23 00:01:00,45.0,19.0,30.02,NW,314,12.0,20.0,34,-99.99,,,-99.99,0.000000,,2013-02-23 07:01:00,
2013-02-23 00:11:00,44.0,19.0,30.03,NW,313,11.0,16.0,36,-99.99,,,-99.99,0.000000,,2013-02-23 07:11:00,
2013-02-23 00:21:00,44.0,19.0,30.03,NW,313,11.0,16.0,36,-99.99,,,-99.99,0.000000,,2013-02-23 07:21:00,
2013-02-23 00:32:00,44.0,19.0,30.03,NW,313,11.0,16.0,36,-99.99,,,-99.99,0.000000,,2013-02-23 07:32:00,
2013-02-23 00:41:00,44.0,19.0,30.03,WNW,291,11.0,17.0,37,-99.99,,,-99.99,0.000000,,2013-02-23 07:41:00,
2013-02-23 00:52:00,44.0,19.0,30.03,WNW,291,11.0,17.0,37,-99.99,,,-99.99,0.000000,,2013-02-23 07:52:00,
2013-02-23 01:01:00,43.0,20.0,30.04,WNW,293,11.0,17.0,38,-99.99,,,-99.99,0.000000,,2013-02-23 08:01:00,
2013-02-23 01:11:00,43.0,20.0,30.04,WNW,294,10.0,17.0,39,-99.99,,,-99.99,0.000000,,2013-02-23 08:11:00,
2013-02-23 01:21:00,43.0,20.0,30.04,WNW,294,10.0,17.0,39,-99.99,,,-99.99,0.000000,,2013-02-23 08:21:00,
2013-02-23 01:31:00,43.0,20.0,30.04,WNW,294,10.0,17.0,39,-99.99,,,-99.99,0.000000,,2013-02-23 08:31:00,
2013-02-23 01:42:00,42.0,16.0,30.04,NW,307,15.0,21.0,33,-99.99,,,-99.99,0.000000,,2013-02-23 08:42:00,
2013-02-23 01:52:00,42.0,16.0,30.04,NW,307,15.0,21.0,33,-99.99,,,-99.99,0.000000,,2013-02-23 08:52:00,
2013-02-23 02:01:00,42.0,13.0,30.04,NW,309,16.0,21.0,29,-99.99,,,-99.99,0.000000,,2013-02-23 09:01:00,
2013-02-23 02:11:00,42.0,11.0,30.04,NW,306,15.0,20.0,27,-99.99,,,-99.99,0.000000,,2013-02-23 09:11:00,
2013-02-23 02:21:00,42.0,11.0,30.04,NW,306,15.0,20.0,27,-99.99,,,-99.99,0.000000,,2013-02-23 09:21:00,
2013-02-23 02:31:00,41.0,10.0,30.04,NW,310,14.0,20.0,27,-99.99,,,-99.99,0.000000,,2013-02-23 09:31:00,
2013-02-23 02:41:00,41.0,10.0,30.04,NW,313,13.0,18.0,28,-99.99,,,-99.99,0.000000,,2013-02-23 09:41:00,
2013-02-23 02:52:00,41.0,10.0,30.04,NW,313,13.0,18.0,28,-99.99,,,-99.99,0.000000,,2013-02-23 09:52:00,
2013-02-23 03:01:00,40.0,10.0,30.04,NW,314,11.0,16.0,28,-99.99,,,-99.99,0.000000,,2013-02-23 10:01:00,
2013-02-23 03:11:00,39.0,10.0,30.05,North,349,5.0,12.0,29,-99.99,,,-99.99,0.000000,,2013-02-23 10:11:00,
2013-02-23 03:21:00,39.0,10.0,30.05,North,349,5.0,12.0,29,-99.99,,,-99.99,0.000000,,2013-02-23 10:21:00,
2013-02-23 03:31:00,37.0,10.0,30.05,ENE,76,4.0,7.0,32,-99.99,,,-99.99,0.000000,,2013-02-23 10:31:00,
2013-02-23 03:42:00,39.0,11.0,30.04,SE,125,5.0,9.0,31,-99.99,,,-99.99,0.000000,,2013-02-23 10:42:00,
2013-02-23 03:52:00,39.0,11.0,30.04,SE,125,5.0,9.0,31,-99.99,,,-99.99,0.000000,,2013-02-23 10:52:00,
2013-02-23 04:02:00,38.0,11.0,30.04,SE,126,5.0,8.0,32,-99.99,,,-99.99,0.000000,,2013-02-23 11:02:00,
2013-02-23 04:11:00,36.0,11.0,30.04,ENE,78,4.0,5.0,34,-99.99,,,-99.99,0.000000,,2013-02-23 11:11:00,
2013-02-23 04:21:00,36.0,11.0,30.04,ENE,78,4.0,5.0,34,-99.99,,,-99.99,0.000000,,2013-02-23 11:21:00,
2013-02-23 04:32:00,35.0,11.0,30.03,ENE,76,5.0,7.0,35,-99.99,,,-99.99,0.000000,,2013-02-23 11:32:00,
2013-02-23 04:42:00,35.0,10.0,30.03,NNE,31,3.0,6.0,35,-99.99,,,-99.99,0.000000,,2013-02-23 11:42:00,
2013-02-23 04:52:00,35.0,10.0,30.03,NNE,31,3.0,6.0,35,-99.99,,,-99.99,0.000000,,2013-02-23 11:52:00,
2013-02-23 05:02:00,35.0,10.0,30.03,NNE,12,5.0,7.0,35,-99.99,,,-99.99,0.000000,,2013-02-23 12:02:00,
2013-02-23 05:11:00,34.0,10.0,30.03,NNE,25,5.0,7.0,35,-99.99,,,-99.99,0.000000,,2013-02-23 12:11:00,
2013-02-23 05:21:00,34.0,10.0,30.03,NNE,25,5.0,7.0,35,-99.99,,,-99.99,0.000000,,2013-02-23 12:21:00,
2013-02-23 05:32:00,34.0,10.0,30.03,NNE,32,4.0,7.0,35,-99.99,,,-99.99,0.000000,,2013-02-23 12:32:00,
2013-02-23 05:42:00,33.0,10.0,30.04,ENE,59,4.0,6.0,37,-99.99,,,-99.99,0.000000,,2013-02-23 12:42:00,
2013-02-23 05:52:00,33.0,10.0,30.04,ENE,59,4.0,6.0,37,-99.99,,,-99.99,0.000000,,2013-02-23 12:52:00,
2013-02-23 06:01:00,33.0,11.0,30.04,East,85,4.0,6.0,38,-99.99,,,-99.99,0.000000,,2013-02-23 13:01:00,
2013-02-23 06:11:00,32.0,11.0,30.04,NE,50,6.0,7.0,40,-99.99,,,-99.99,0.000000,,2013-02-23 13:11:00,
2013-02-23 06:22:00,32.0,11.0,30.04,NE,50,6.0,7.0,40,-99.99,,,-99.99,0.000000,,2013-02-23 13:22:00,
2013-02-23 06:32:00,31.0,11.0,30.04,NE,50,6.0,9.0,43,-99.99,,,-99.99,0.000000,,2013-02-23 13:32:00,
2013-02-23 06:42:00,29.0,11.0,30.04,NE,54,8.0,9.0,47,-99.99,,,-99.99,0.000000,,2013-02-23 13:42:00,
2013-02-23 06:52:00,29.0,11.0,30.04,NE,54,8.0,9.0,47,-99.99,,,-99.99,0.000000,,2013-02-23 13:52:00,
2013-02-23 07:02:00,29.0,11.0,30.04,NE,54,8.0,9.0,47,-99.99,,,-99.99,0.000000,,2013-02-23 14:02:00,
2013-02-23 07:11:00,29.0,11.0,30.04,NE,54,8.0,9.0,47,-99.99,,,-99.99,0.000000,,2013-02-23 14:11:00,
2013-02-23 07:32:00,29.0,12.0,30.04,NNE,23,10.0,11.0,48,-99.99,,,-99.99,4.180000,,2013-02-23 14:32:00,
2013-02-23 07:42:00,30.0,12.0,30.05,NNE,20,4.0,8.0,47,-99.99,,,-99.99,75.309998,,2013-02-23 14:42:00,
2013-02-23 07:52:00,30.0,12.0,30.05,NNE,20,4.0,8.0,47,-99.99,,,-99.99,75.309998,,2013-02-23 14:52:00,
2013-02-23 08:02:00,33.0,13.0,30.06,North,9,4.0,6.0,42,-99.99,,,-99.99,142.259995,,2013-02-23 15:02:00,
2013-02-23 08:11:00,34.0,13.0,30.06,NNW,346,5.0,7.0,41,-99.99,,,-99.99,199.440002,,2013-02-23 15:11:00,
2013-02-23 08:22:00,34.0,13.0,30.06,NNW,346,5.0,7.0,41,-99.99,,,-99.99,199.440002,,2013-02-23 15:22:00,
2013-02-23 08:32:00,35.0,14.0,30.06,NNE,14,5.0,7.0,40,-99.99,,,-99.99,255.919998,,2013-02-23 15:32:00,
2013-02-23 08:42:00,37.0,13.0,30.06,North,7,8.0,12.0,36,-99.99,,,-99.99,299.160004,,2013-02-23 15:42:00,
2013-02-23 08:52:00,37.0,13.0,30.06,North,7,8.0,12.0,36,-99.99,,,-99.99,299.160004,,2013-02-23 15:52:00,
2013-02-23 09:01:00,39.0,13.0,30.07,North,1,10.0,15.0,34,-99.99,,,-99.99,359.130005,,2013-02-23 16:01:00,
2013-02-23 09:11:00,40.0,13.0,30.06,NNE,14,10.0,13.0,32,-99.99,,,-99.99,421.190002,,2013-02-23 16:11:00,
2013-02-23 09:21:00,40.0,13.0,30.06,NNE,14,10.0,13.0,32,-99.99,,,-99.99,421.190002,,2013-02-23 16:21:00,
2013-02-23 09:31:00,40.0,13.0,30.06,NNE,21,9.0,13.0,31,-99.99,,,-99.99,486.739990,,2013-02-23 16:31:00,
2013-02-23 09:42:00,41.0,12.0,30.06,NNE,31,8.0,11.0,30,-99.99,,,-99.99,539.039978,,2013-02-23 16:42:00,
2013-02-23 09:52:00,41.0,12.0,30.06,NNE,31,8.0,11.0,30,-99.99,,,-99.99,539.039978,,2013-02-23 16:52:00,
2013-02-23 10:01:00,43.0,12.0,30.06,North,9,7.0,10.0,28,-99.99,,,-99.99,583.669983,,2013-02-23 17:01:00,
2013-02-23 10:11:00,44.0,12.0,30.06,NNE,21,6.0,11.0,27,-99.99,,,-99.99,627.599976,,2013-02-23 17:11:00,
2013-02-23 10:21:00,44.0,12.0,30.06,NNE,21,6.0,11.0,27,-99.99,,,-99.99,627.599976,,2013-02-23 17:21:00,
2013-02-23 10:31:00,44.0,11.0,30.06,NE,36,4.0,9.0,25,-99.99,,,-99.99,665.950012,,2013-02-23 17:31:00,
2013-02-23 10:42:00,46.0,11.0,30.06,NNE,29,2.0,6.0,24,-99.99,,,-99.99,699.429993,,2013-02-23 17:42:00,
2013-02-23 10:52:00,46.0,11.0,30.06,NNE,29,2.0,6.0,24,-99.99,,,-99.99,699.429993,,2013-02-23 17:52:00,
2013-02-23 11:01:00,47.0,11.0,30.06,NE,42,2.0,5.0,22,-99.99,,,-99.99,723.830017,,2013-02-23 18:01:00,
2013-02-23 11:12:00,47.0,11.0,30.05,South,186,3.0,6.0,22,-99.99,,,-99.99,749.630005,,2013-02-23 18:12:00,
2013-02-23 11:22:00,47.0,11.0,30.05,South,186,3.0,6.0,22,-99.99,,,-99.99,749.630005,,2013-02-23 18:22:00,
2013-02-23 11:32:00,48.0,11.0,30.04,SSW,201,3.0,9.0,22,-99.99,,,-99.99,774.039978,,2013-02-23 18:32:00,
2013-02-23 11:42:00,49.0,11.0,30.02,West,267,2.0,6.0,21,-99.99,,,-99.99,793.570007,,2013-02-23 18:42:00,
2013-02-23 11:52:00,49.0,11.0,30.02,West,267,2.0,6.0,21,-99.99,,,-99.99,793.570007,,2013-02-23 18:52:00,
2013-02-23 12:01:00,49.0,12.0,30.02,SSW,210,3.0,9.0,21,-99.99,,,-99.99,811.700012,,2013-02-23 19:01:00,
2013-02-23 12:11:00,50.0,12.0,30.01,SW,216,5.0,11.0,21,-99.99,,,-99.99,824.950012,,2013-02-23 19:11:00,
2013-02-23 12:21:00,50.0,12.0,30.01,SW,216,5.0,11.0,21,-99.99,,,-99.99,824.950012,,2013-02-23 19:21:00,
2013-02-23 12:32:00,51.0,12.0,30.00,South,182,6.0,12.0,21,-99.99,,,-99.99,831.919983,,2013-02-23 19:32:00,
2013-02-23 12:41:00,51.0,13.0,29.99,South,177,8.0,16.0,22,-99.99,,,-99.99,837.500000,,2013-02-23 19:41:00,
2013-02-23 12:52:00,51.0,13.0,29.99,South,177,8.0,16.0,22,-99.99,,,-99.99,837.500000,,2013-02-23 19:52:00,
2013-02-23 13:01:00,51.0,14.0,29.98,SSE,161,7.0,16.0,22,-99.99,,,-99.99,836.099976,,2013-02-23 20:01:00,
2013-02-23 13:11:00,53.0,14.0,29.96,SSE,151,9.0,17.0,21,-99.99,,,-99.99,830.520020,,2013-02-23 20:11:00,
2013-02-23 13:21:00,53.0,14.0,29.96,SSE,151,9.0,17.0,21,-99.99,,,-99.99,830.520020,,2013-02-23 20:21:00,
2013-02-23 13:32:00,54.0,14.0,29.94,SSE,150,10.0,24.0,19,-99.99,,,-99.99,820.760010,,2013-02-23 20:32:00,
2013-02-23 13:41:00,56.0,13.0,29.92,SSW,197,12.0,21.0,17,-99.99,,,-99.99,808.909973,,2013-02-23 20:41:00,
2013-02-23 13:53:00,56.0,13.0,29.92,SSW,197,12.0,21.0,17,-99.99,,,-99.99,808.909973,,2013-02-23 20:53:00,
2013-02-23 14:01:00,56.0,12.0,29.91,SSW,205,14.0,27.0,17,-99.99,,,-99.99,790.080017,,2013-02-23 21:01:00,
2013-02-23 14:11:00,56.0,12.0,29.90,SSW,213,12.0,23.0,16,-99.99,,,-99.99,767.070007,,2013-02-23 21:11:00,
2013-02-23 14:22:00,56.0,12.0,29.90,SSW,213,12.0,23.0,16,-99.99,,,-99.99,767.070007,,2013-02-23 21:22:00,
2013-02-23 14:32:00,57.0,13.0,29.89,SSW,203,14.0,25.0,17,-99.99,,,-99.99,744.049988,,2013-02-23 21:32:00,
2013-02-23 14:41:00,56.0,13.0,29.88,South,190,13.0,22.0,17,-99.99,,,-99.99,716.159973,,2013-02-23 21:41:00,
2013-02-23 14:52:00,56.0,13.0,29.88,South,190,13.0,22.0,17,-99.99,,,-99.99,716.159973,,2013-02-23 21:52:00,
2013-02-23 15:01:00,57.0,13.0,29.87,SSW,200,13.0,22.0,17,-99.99,,,-99.99,685.479980,,2013-02-23 22:01:00,
2013-02-23 15:11:00,58.0,13.0,29.86,SW,225,15.0,24.0,16,-99.99,,,-99.99,652.010010,,2013-02-23 22:11:00,
2013-02-23 15:22:00,58.0,13.0,29.86,SW,225,15.0,24.0,16,-99.99,,,-99.99,652.010010,,2013-02-23 22:22:00,
2013-02-23 15:31:00,58.0,15.0,29.85,SW,221,15.0,23.0,17,-99.99,,,-99.99,613.650024,,2013-02-23 22:31:00,
2013-02-23 15:42:00,58.0,15.0,29.84,SW,218,15.0,23.0,18,-99.99,,,-99.99,571.119995,,2013-02-23 22:42:00,
2013-02-23 15:52:00,58.0,15.0,29.84,SW,218,15.0,23.0,18,-99.99,,,-99.99,571.119995,,2013-02-23 22:52:00,
2013-02-23 16:01:00,59.0,16.0,29.83,SW,220,14.0,23.0,18,-99.99,,,-99.99,525.090027,,2013-02-23 23:01:00,
2013-02-23 16:11:00,59.0,17.0,29.83,SW,216,14.0,24.0,18,-99.99,,,-99.99,476.980011,,2013-02-23 23:11:00,
2013-02-23 16:21:00,59.0,17.0,29.83,SW,216,14.0,24.0,18,-99.99,,,-99.99,476.980011,,2013-02-23 23:21:00,
2013-02-23 16:31:00,59.0,17.0,29.82,SSW,213,15.0,23.0,18,-99.99,,,-99.99,426.070007,,2013-02-23 23:31:00,
2013-02-23 16:42:00,59.0,16.0,29.81,SW,218,16.0,24.0,18,-99.99,,,-99.99,369.589996,,2013-02-23 23:42:00,
2013-02-23 16:52:00,59.0,16.0,29.81,SW,218,16.0,24.0,18,-99.99,,,-99.99,369.589996,,2013-02-23 23:52:00,
2013-02-23 17:01:00,59.0,16.0,29.81,SW,221,18.0,27.0,18,-99.99,,,-99.99,314.500000,,2013-02-24 00:01:00,
2013-02-23 17:11:00,59.0,16.0,29.80,SW,221,17.0,29.0,18,-99.99,,,-99.99,267.079987,,2013-02-24 00:11:00,
2013-02-23 17:22:00,59.0,16.0,29.80,SW,221,17.0,29.0,18,-99.99,,,-99.99,267.079987,,2013-02-24 00:22:00,
2013-02-23 17:32:00,59.0,17.0,29.80,SW,219,16.0,25.0,18,-99.99,,,-99.99,207.110001,,2013-02-24 00:32:00,
2013-02-23 17:42:00,59.0,18.0,29.79,SSW,210,16.0,25.0,19,-99.99,,,-99.99,163.179993,,2013-02-24 00:42:00,
2013-02-23 17:52:00,59.0,18.0,29.79,SSW,210,16.0,25.0,19,-99.99,,,-99.99,163.179993,,2013-02-24 00:52:00,
2013-02-23 18:01:00,59.0,18.0,29.79,SSW,213,15.0,23.0,20,-99.99,,,-99.99,107.389999,,2013-02-24 01:01:00,
2013-02-23 18:11:00,58.0,18.0,29.79,SSW,205,14.0,25.0,21,-99.99,,,-99.99,13.250000,,2013-02-24 01:11:00,
2013-02-23 18:22:00,58.0,18.0,29.79,SSW,205,14.0,25.0,21,-99.99,,,-99.99,13.250000,,2013-02-24 01:22:00,
2013-02-23 18:31:00,56.0,19.0,29.80,SSW,203,13.0,20.0,23,-99.99,,,-99.99,6.280000,,2013-02-24 01:31:00,
2013-02-23 18:42:00,56.0,19.0,29.80,SSW,202,11.0,18.0,23,-99.99,,,-99.99,1.390000,,2013-02-24 01:42:00,
2013-02-23 18:52:00,56.0,19.0,29.80,SSW,202,11.0,18.0,23,-99.99,,,-99.99,1.390000,,2013-02-24 01:52:00,
2013-02-23 19:01:00,55.0,18.0,29.80,SSW,193,12.0,19.0,23,-99.99,,,-99.99,0.000000,,2013-02-24 02:01:00,
2013-02-23 19:11:00,55.0,18.0,29.80,South,174,11.0,15.0,23,-99.99,,,-99.99,0.000000,,2013-02-24 02:11:00,
2013-02-23 19:21:00,55.0,18.0,29.80,South,174,11.0,15.0,23,-99.99,,,-99.99,0.000000,,2013-02-24 02:21:00,
2013-02-23 19:32:00,54.0,18.0,29.80,SSE,165,11.0,16.0,23,-99.99,,,-99.99,0.000000,,2013-02-24 02:32:00,
2013-02-23 19:42:00,53.0,18.0,29.80,SSE,155,12.0,15.0,25,-99.99,,,-99.99,0.000000,,2013-02-24 02:42:00,
2013-02-23 19:52:00,53.0,18.0,29.80,SSE,155,12.0,15.0,25,-99.99,,,-99.99,0.000000,,2013-02-24 02:52:00,
2013-02-23 20:01:00,52.0,19.0,29.79,SSE,155,11.0,16.0,26,-99.99,,,-99.99,0.000000,,2013-02-24 03:01:00,
2013-02-23 20:11:00,51.0,19.0,29.79,SSE,159,11.0,15.0,27,-99.99,,,-99.99,0.000000,,2013-02-24 03:11:00,
2013-02-23 20:21:00,51.0,19.0,29.79,SSE,159,11.0,15.0,27,-99.99,,,-99.99,0.000000,,2013-02-24 03:21:00,
2013-02-23 20:32:00,51.0,19.0,29.80,SSE,166,11.0,14.0,28,-99.99,,,-99.99,0.000000,,2013-02-24 03:32:00,
2013-02-23 20:42:00,51.0,19.0,29.80,South,170,12.0,17.0,28,-99.99,,,-99.99,0.000000,,2013-02-24 03:42:00,
2013-02-23 20:52:00,51.0,19.0,29.80,South,170,12.0,17.0,28,-99.99,,,-99.99,0.000000,,2013-02-24 03:52:00,
2013-02-23 21:01:00,51.0,19.0,29.80,South,177,14.0,19.0,28,-99.99,,,-99.99,0.000000,,2013-02-24 04:01:00,
2013-02-23 21:11:00,52.0,19.0,29.80,South,174,15.0,20.0,27,-99.99,,,-99.99,0.000000,,2013-02-24 04:11:00,
2013-02-23 21:21:00,52.0,19.0,29.80,South,174,15.0,20.0,27,-99.99,,,-99.99,0.000000,,2013-02-24 04:21:00,
2013-02-23 21:31:00,51.0,20.0,29.80,South,178,15.0,22.0,28,-99.99,,,-99.99,0.000000,,2013-02-24 04:31:00,
2013-02-23 21:41:00,51.0,20.0,29.80,South,181,14.0,21.0,28,-99.99,,,-99.99,0.000000,,2013-02-24 04:41:00,
2013-02-23 21:52:00,51.0,20.0,29.80,South,181,14.0,21.0,28,-99.99,,,-99.99,0.000000,,2013-02-24 04:52:00,
2013-02-23 22:01:00,51.0,20.0,29.80,South,177,14.0,20.0,29,-99.99,,,-99.99,0.000000,,2013-02-24 05:01:00,
2013-02-23 22:11:00,51.0,20.0,29.79,South,175,14.0,22.0,30,-99.99,,,-99.99,0.000000,,2013-02-24 05:11:00,
2013-02-23 22:22:00,51.0,20.0,29.79,South,175,14.0,22.0,30,-99.99,,,-99.99,0.000000,,2013-02-24 05:22:00,
2013-02-23 22:32:00,50.0,21.0,29.79,South,172,13.0,20.0,30,-99.99,,,-99.99,0.000000,,2013-02-24 05:32:00,
2013-02-23 22:42:00,50.0,20.0,29.78,SSE,167,13.0,18.0,30,-99.99,,,-99.99,0.000000,,2013-02-24 05:42:00,
2013-02-23 22:52:00,50.0,20.0,29.78,SSE,167,13.0,18.0,30,-99.99,,,-99.99,0.000000,,2013-02-24 05:52:00,
2013-02-23 23:01:00,49.0,20.0,29.77,SSE,160,11.0,16.0,31,-99.99,,,-99.99,0.000000,,2013-02-24 06:01:00,
2013-02-23 23:11:00,49.0,20.0,29.78,SSE,154,10.0,14.0,32,-99.99,,,-99.99,0.000000,,2013-02-24 06:11:00,
2013-02-23 23:21:00,49.0,20.0,29.78,SSE,154,10.0,14.0,32,-99.99,,,-99.99,0.000000,,2013-02-24 06:21:00,
2013-02-23 23:31:00,48.0,20.0,29.77,SE,139,9.0,13.0,32,-99.99,,,-99.99,0.000000,,2013-02-24 06:31:00,
2013-02-23 23:42:00,48.0,20.0,29.76,SE,133,9.0,13.0,32,-99.99,,,-99.99,0.000000,,2013-02-24 06:42:00,
2013-02-23 23:52:00,48.0,20.0,29.76,SE,133,9.0,13.0,32,-99.99,,,-99.99,0.000000,,2013-02-24 06:52:00,